Location: Ladrillo (historical)
(32.8195°N, 117.2231°W)
Time: 23:02:57
(UTC+00:00)

X-37B - Pass Details

Date: 30 January 2021
Orbit: 383 x 391 km, 45.0° (Epoch: 10 February)

Event Time Altitude Azimuth Distance (km) Brightness Sun altitude
Rises 02:04:00 0° 314° (NW) 2,272 4.9 -9.8°
Reaches altitude 10° 02:06:30 10° 334° (NNW) 1,417 3.6 -10.3°
Maximum altitude 02:08:49 18° 21° (NNE) 1,027 2.4 -10.8°
Enters shadow 02:10:02 15° 50° (NE) 1,148 2.4 -11.1°
